Weather Roundup
Issued by NWS

Home | Current Version | Previous Version | Text Only | Print | Product List | Glossary On
Versions: 1 2 3 4 5 6 7 8 9 10 11 12 13 14 15 16 17 18 19 20 21 22 23 24 25 26 27 28 29 30 31 32 33 34 35 36 37 38 39 40 41 42 43 44 45 46 47 48 49 50
000
NZUS93 KARX 021559
HRRWXR

CURRENT HOURLY OBSERVATIONS ACROSS
MUCH OF THE UPPER MISSISSIPPI VALLEY
NATIONAL WEATHER SERVICE LA CROSSE WI
1100 AM CDT SAT MAY 02 2015


...SOUTHEAST MINNESOTA...


CITY           SKY/WX    TMP DP  RH WIND       PRES   REMARKS
ROCHESTER      SUNNY     70  42  36 S12       29.96F
ROCHESTER/MAYO FAIR      69  41  37 S9        29.95S
WINONA         SUNNY     73  43  33 W8        29.95F
AUSTIN         SUNNY     66  46  48 S7        29.94F
ALBERT LEA     SUNNY     66  45  45 CALM      29.92F
DODGE CENTER   SUNNY     68  45  42 SW9       29.94S
PRESTON        SUNNY     70  40  33 S18       29.97S
OWATONNA       SUNNY     70  43  37 S8        29.92F
FARIBAULT      SUNNY     70  45  40 S8        29.93S
$$

...ELSEWHERE IN MINNESOTA...


CITY           SKY/WX    TMP DP  RH WIND       PRES   REMARKS
MINNEAPOLIS    SUNNY     69  48  47 S7        29.91F
INTNL FALLS    SUNNY     72  42  34 SW13G21   29.76F
DULUTH         SUNNY     70  45  40 SW13      29.87F
RED WING       SUNNY     70  45  40 S3        29.92S
REDWOOD FALLS  SUNNY     73  48  41 SE6       29.86F
MANKATO        SUNNY     66  46  48 S7        29.91F
WORTHINGTON    MOSUNNY   70  48  46 S6        29.89S
FAIRMONT       MOSUNNY   68  34  28 SE6       29.90S
$$

...SOUTHWEST WISCONSIN...


CITY           SKY/WX    TMP DP  RH WIND       PRES   REMARKS
LA CROSSE      SUNNY     74  40  29 S12       29.96F
PRAIRIE DU CHI SUNNY     70  33  25 S9        29.99F
BOSCOBEL       SUNNY     74  37  26 SW13      30.00F
LONE ROCK      NOT AVBL
PLATTEVILLE    SUNNY     69  35  28 SW18G25   30.03F
FORT MC COY    SUNNY     72  35  25 SW13G18   29.98F
VIROQUA        PTSUNNY   69  36  29 SW18      30.00F
WIS DELLS      NOT AVBL
$$

...ELSEWHERE IN WISCONSIN...


CITY           SKY/WX    TMP DP  RH WIND       PRES   REMARKS
MILWAUKEE      MOSUNNY   69  34  27 SW12      30.04F
MADISON        PTSUNNY   69  35  28 SW8       30.02F
GREEN BAY      MOSUNNY   71  42  35 SW16      29.98F
EAU CLAIRE     SUNNY     69  44  40 SW8       29.93F
BLACK RVR FLS  FAIR      71  35  26 SW10      29.96F
MEDFORD        SUNNY     64  45  50 SW8       29.96S
WAUSAU         SUNNY     67  43  41 SW9       29.94F
WIS RAPIDS     SUNNY     72  37  28 SW12G20   29.98F
MARSHFIELD     SUNNY     70  40  33 W14G22    29.96F
RICE LAKE      SUNNY     64  46  51 S5        29.94F
$$

...NORTHEAST IOWA...


CITY           SKY/WX    TMP DP  RH WIND       PRES   REMARKS
DECORAH        SUNNY     70  37  30 S14G22    29.97F
MASON CITY     MOSUNNY   69  46  43 S12       29.94F
CHARLES CITY   SUNNY     70  43  37 S16G22    29.96F
OELWEIN        SUNNY     72  39  30 S18       30.00S
$$

...ELSEWHERE IN IOWA...


CITY           SKY/WX    TMP DP  RH WIND       PRES   REMARKS
DES MOINES     CLOUDY    65  47  52 SW14      29.99R
IOWA CITY      MOSUNNY   69  40  34 S17       30.05S
FORT DODGE     PTSUNNY   66  52  59 SW12G20   29.95S
$$

...NORTHERN ILLINOIS...


CITY           SKY/WX    TMP DP  RH WIND       PRES   REMARKS
CHICAGO-OHARE  MOSUNNY   69  34  27 SW9       30.07S
CHICAGO-MIDWAY MOSUNNY   71  34  25 W12       30.08S
MOLINE         SUNNY     72  37  28 SW9       30.04F
ROCKFORD       MOSUNNY   72  36  26 W10       30.08F
PEORIA         MOSUNNY   72  42  34 S13       30.09F
$$

NOTE: "FAIR" INDICATES FEW OR NO CLOUDS BELOW 12,000 FEET WITH NO
SIGNIFICANT WEATHER AND/OR OBSTRUCTIONS TO VISIBILITY. WIND
SPEEDS ARE IN MILES-PER-HOUR.



USA.gov is the U.S. government's official web portal to all federal, state and local government web resources and services.